Location: Ethel Rock
(53.4667°N, 4.5667°W)
Time: 05:32:21
(UTC+00:00)

Cosmos 1726 Rocket - Pass Details

Date: 24 October 2020
Orbit: 604 x 629 km, 82.5° (Epoch: 25 November)

Event Time Altitude Azimuth Distance (km) Brightness Sun altitude
Rises 05:02:55 0° 351° (N) 2,918 7.0 -18.4°
Reaches altitude 10° 05:05:12 10° 355° (N) 2,010 6.2 -18.1°
Maximum altitude 05:09:36 59° 75° (ENE) 731 4.2 -17.4°
Drops below altitude 10° 05:13:59 10° 156° (SSE) 2,004 6.4 -16.7°
Sets 05:16:15 0° 160° (SSE) 2,908 7.3 -16.4°
